Terug naar catalogus

ARIANE 3 DEB

ActiefGTO
NORAD 33538·DEBRIS·🇫🇷 France

Gelanceerd Sep 8, 1988 vanaf Guiana Space Centre

Loading…

TLE

VerouderdSource: Space-Track

Epoch: Sep 12, 2026, 04:03 UTC

1 33538U 88081N   26255.16904997  .00000001  00000-0  16795-2 0  9993
2 33538   7.4325 323.4245 7192528  11.4297 358.7823  2.24402694172432

Volg ARIANE 3 DEB in realtime met AllMySat

Download on the App Store